Newark, NJ

3:27 AM EDT on July 26, 2017 (GMT -0400)
Newark International

Weather History for KEWR - September, 2011

Change the Weather History Date:

Sunday, September 11, 2011

  Actual Average Record
Temperature  
Mean Temperature 69 °F 70 °F  
Max Temperature 71 °F 79 °F 99 °F (1983)
Min Temperature 67 °F 62 °F 47 °F (1932)
Degree Days  
Heating Degree Days 0 1  
Month to date heating degree days 0 2  
Since 1 July heating degree days 0 3  
Cooling Degree Days 4 6  
Month to date cooling degree days 97 77  
Year to date cooling degree days 1446 1111  
Growing Degree Days 18 (Base 50)    
Moisture  
Dew Point 61 °F    
Average Humidity 75    
Maximum Humidity 84    
Minimum Humidity 66    
Precipitation  
Precipitation T in 0.12 in 3.64 in (1954)
Month to date precipitation 5.05 1.26  
Year to date precipitation 52.99 32.63  
Snow  
Snow 0.00 in 0.00 in 0.00 in (2002)
Month to date snowfall 0.0 0.0  
Since 1 July snowfall 0.0 0.0  
Snow Depth 0.00 in    
Sea Level Pressure  
Sea Level Pressure 30.07 in    
Wind  
Wind Speed 6 mph (ESE)    
Max Wind Speed 12 mph    
Max Gust Speed 15 mph    
Visibility 10 miles    
Events      
T = Trace of Precipitation, MM = Missing Value Source: NWS Daily Summary

Daily Weather History Graph

Daily Weather History Graph

Search for Another Location

Airport or City:

Trip Planner

Search our weather history database for the weather conditions in past years. The results will help you decide how hot, cold, wet, or windy it might be!

Date:

Astronomy

Sep. 11, 2011 Rise Set
Actual Time 6:33 AM EDT 7:12 PM EDT
Civil Twilight 6:05 AM EDT 7:40 PM EDT
Nautical Twilight 5:32 AM EDT 8:13 PM EDT
Astronomical Twilight 4:59 AM EDT 8:46 PM EDT
Moon 6:33 PM EDT (9/11) 5:49 AM EDT (9/11)
Length of Visible Light 13h 34m
Length of Day
12h 39m
Full, 100% of the Moon is Illuminated
Sep 11
Full
Sep 12
Full
Sep 20
Last Quarter
Sep 27
New
Oct 3
First Quarter

Hourly Weather History & Observations

Time (EDT) Temp. Dew Point Humidity Pressure Visibility Wind Dir Wind Speed Gust Speed Precip Events Conditions
12:51 AM 71.1 °F 63.0 °F 75% 30.04 in 10.0 mi East 6.9 mph - N/A   Mostly Cloudy
1:35 AM 69.8 °F 62.6 °F 78% 30.05 in 10.0 mi ESE 8.1 mph - N/A   Mostly Cloudy
1:51 AM 71.1 °F 63.0 °F 75% 30.05 in 10.0 mi East 6.9 mph - N/A   Mostly Cloudy
2:21 AM 69.8 °F 62.6 °F 78% 30.05 in 10.0 mi East 6.9 mph - N/A   Overcast
2:51 AM 70.0 °F 62.1 °F 76% 30.05 in 10.0 mi East 6.9 mph - N/A   Mostly Cloudy
3:30 AM 69.8 °F 60.8 °F 73% 30.06 in 10.0 mi East 8.1 mph - N/A   Mostly Cloudy
3:51 AM 69.1 °F 61.0 °F 75% 30.06 in 10.0 mi East 6.9 mph - N/A   Mostly Cloudy
4:51 AM 68.0 °F 60.1 °F 76% 30.08 in 10.0 mi ENE 10.4 mph - N/A   Mostly Cloudy
5:51 AM 66.9 °F 59.0 °F 76% 30.08 in 10.0 mi NE 10.4 mph - N/A   Mostly Cloudy
6:51 AM 66.9 °F 57.9 °F 73% 30.09 in 10.0 mi ENE 6.9 mph - N/A   Scattered Clouds
7:51 AM 66.9 °F 57.9 °F 73% 30.11 in 10.0 mi ENE 6.9 mph - N/A   Mostly Cloudy
8:51 AM 69.1 °F 57.9 °F 68% 30.12 in 10.0 mi ENE 5.8 mph - N/A   Mostly Cloudy
9:51 AM 69.1 °F 59.0 °F 70% 30.12 in 10.0 mi ESE 4.6 mph - N/A   Mostly Cloudy
10:51 AM 71.1 °F 60.1 °F 68% 30.12 in 10.0 mi East 6.9 mph - N/A   Mostly Cloudy
11:51 AM 71.1 °F 59.0 °F 66% 30.11 in 10.0 mi ESE 5.8 mph - N/A   Overcast
12:51 PM 71.1 °F 59.0 °F 66% 30.11 in 10.0 mi ESE 8.1 mph - N/A   Overcast
1:51 PM 70.0 °F 60.1 °F 71% 30.09 in 10.0 mi SE 6.9 mph - 0.00 in   Overcast
2:51 PM 70.0 °F 61.0 °F 73% 30.08 in 10.0 mi ESE 8.1 mph - N/A   Overcast
3:51 PM 70.0 °F 61.0 °F 73% 30.06 in 10.0 mi ESE 5.8 mph - N/A   Overcast
4:51 PM 70.0 °F 61.0 °F 73% 30.05 in 10.0 mi ESE 5.8 mph - N/A   Overcast
5:30 PM 69.8 °F 62.6 °F 78% 30.05 in 10.0 mi ESE 4.6 mph - N/A   Overcast
5:51 PM 69.8 °F 62.6 °F 78% 30.05 in 10.0 mi ESE 6.9 mph - N/A   Overcast
6:51 PM 70.0 °F 62.1 °F 76% 30.05 in 10.0 mi Variable 4.6 mph - N/A   Overcast
7:51 PM 70.0 °F 63.0 °F 78% 30.04 in 10.0 mi ESE 4.6 mph - N/A   Overcast
8:51 PM 70.0 °F 63.0 °F 78% 30.06 in 10.0 mi SE 4.6 mph - N/A   Overcast
9:51 PM 69.1 °F 64.0 °F 84% 30.05 in 10.0 mi SE 5.8 mph - N/A   Overcast
10:08 PM 69.8 °F 64.4 °F 83% 30.05 in 10.0 mi Variable 3.5 mph - N/A   Overcast
10:24 PM 69.8 °F 64.4 °F 83% 30.05 in 10.0 mi Calm Calm - N/A   Overcast
10:51 PM 69.1 °F 64.0 °F 84% 30.04 in 10.0 mi SSE 3.5 mph - N/A   Overcast
11:51 PM 69.1 °F 64.9 °F 87% 30.02 in 10.0 mi ESE 3.5 mph - N/A   Overcast